Location: Berkeley
(37.8716°N, 122.2727°W)
Time: 00:19:44
(UTC-07:00)

N. Korean satellite - Visible Passes

Search period start: 23 October 2018 00:00
Search period end: 02 November 2018 00:00
Orbit: 459 x 510 km, 97.2° (Epoch: 22 October)

Date Brightness Start Highest point End Pass type
(mag) Time Alt. Az. Time Alt. Az. Time Alt. Az.
23 Oct 10.4 06:26:57 10° ENE 06:28:09 11° E 06:29:20 10° ESE visible
24 Oct 9.9 19:42:09 10° SW 19:44:36 17° W 19:47:04 10° NW visible
25 Oct 8.6 19:16:39 10° SSW 19:20:04 33° W 19:23:28 10° NNW visible
26 Oct 9.7 06:45:41 10° NE 06:48:25 20° E 06:51:07 10° SE visible
26 Oct 7.0 18:51:52 10° S 18:55:34 73° WSW 18:59:19 10° NNW visible
28 Oct 9.7 19:37:36 10° SW 19:40:16 19° W 19:42:57 10° NW visible
29 Oct 8.3 19:12:15 10° SSW 19:15:44 37° W 19:19:14 10° NNW visible
30 Oct 9.8 06:41:34 10° NE 06:44:03 18° E 06:46:30 10° SE visible
30 Oct 6.7 18:47:32 10° S 18:51:16 83° WSW 18:55:00 10° NNW visible
31 Oct 10.5 20:00:02 10° W 20:00:32 10° W 20:01:02 10° W visible
01 Nov 9.5 19:33:04 10° SW 19:35:55 21° W 19:38:46 10° NW visible
